Tracking 29892 objects as of 21-Nov-2024
HD Live streaming from Space Station
objects crossing your sky now

FENGYUN 1C DEB

Track FENGYUN 1C DEB now!
10-day predictions


NORAD ID: 37704
Int'l Code: 1999-025ELV
Perigee: 831.1 km
Apogee: 1,189.3 km
Inclination: 98.4 °
Period: 105.2 minutes
Semi major axis: 7381 km
RCS: 0.0027 m2 (small)
Launch date: May 10, 1999
Source: People's Republic of China (PRC)
Launch site: Taiyaun Space Center, China (TSC)

Note: This is SATELLITE DEBRIS
Your satellite tracking list
Your tracking list is empty




NASA's NSSDC Master Catalog

Two Line Element Set (TLE):
1 37704U 99025ELV 24325.16610163  .00001749  00000-0  16791-2 0  9993
2 37704  98.3548 203.4467 0242664 137.4963  13.0777 13.69025006726274
Source of the keplerian elements: AFSPC